Weather History for Kankakee, IL

Change the Weather History Date:

Tuesday, March 27, 2012

  Actual Average Record
Temperature  
Mean Temperature 54 °F -  
Max Temperature 72 °F 52 °F 80 °F (2007)
Min Temperature 37 °F 31 °F 12 °F (2002)
Degree Days  
Heating Degree Days 10    
Growing Degree Days 4 (Base 50)    
Moisture  
Dew Point 32 °F    
Average Humidity 47    
Maximum Humidity 62    
Minimum Humidity 35    
Precipitation  
Precipitation 0.00 in - - ()
Sea Level Pressure  
Sea Level Pressure 30.11 in    
Wind  
Wind Speed 16 mph (SE)    
Max Wind Speed 26 mph    
Max Gust Speed 36 mph    
Visibility 10 miles    
Events      
Averages and records for this station are not official NWS values.
T = Trace of Precipitation, MM = Missing Value Source: NWS Daily Summary

Daily Weather History Graph

Daily Weather History Graph

Search for Another Location

Airport:

Trip Planner

Search our weather history database for the weather conditions in past years. The results will help you decide how hot, cold, wet, or windy it might be!

Date:

Astronomy

Mar. 27, 2012 Rise Set
Actual Time 6:42 AM CDT 7:11 PM CDT
Civil Twilight 6:14 AM CDT 7:39 PM CDT
Nautical Twilight 5:42 AM CDT 8:11 PM CDT
Astronomical Twilight 5:08 AM CDT 8:45 PM CDT
Moon 9:10 AM CDT (3/27) No Moon Set
Length of Visible Light 13h 24m
Length of Day
12h 29m
Waxing Crescent, 22% of the Moon is Illuminated
Mar 27
Waxing Crescent
Mar 30
First Quarter
Apr 6
Full
Apr 13
Last Quarter
Apr 21
New

Hourly Weather History & Observations

Time (CDT) Temp. Windchill Dew Point Humidity Pressure Visibility Wind Dir Wind Speed Gust Speed Precip Events Conditions
12:15 AM 44.1 °F 36.8 °F 30.9 °F 60% 30.26 in 10.0 mi ESE 16.1 mph 19.6 mph N/A   Scattered Clouds
12:35 AM 43.7 °F 36.6 °F 31.1 °F 61% 30.26 in 10.0 mi ESE 15.0 mph - N/A   Clear
12:55 AM 43.3 °F 36.1 °F 31.1 °F 62% 30.24 in 10.0 mi ESE 15.0 mph - N/A   Clear
1:15 AM 43.0 °F 35.4 °F 30.4 °F 61% 30.24 in 10.0 mi ESE 16.1 mph - N/A   Clear
1:35 AM 42.8 °F 35.1 °F 29.3 °F 59% 30.25 in 10.0 mi ESE 16.1 mph 23.0 mph N/A   Clear
1:55 AM 41.9 °F 34.6 °F 29.8 °F 62% 30.24 in 10.0 mi ESE 13.8 mph - N/A   Clear
2:15 AM 41.4 °F 33.3 °F 29.3 °F 62% 30.23 in 10.0 mi ESE 16.1 mph 21.9 mph N/A   Clear
2:35 AM 41.2 °F 31.6 °F 27.3 °F 58% 30.21 in 10.0 mi SE 21.9 mph 27.6 mph N/A   Clear
2:55 AM 41.0 °F 31.9 °F 26.4 °F 56% 30.21 in 10.0 mi ESE 19.6 mph 25.3 mph N/A   Clear
3:15 AM 40.5 °F 32.5 °F 24.8 °F 54% 30.21 in 10.0 mi ESE 15.0 mph 27.6 mph N/A   Clear
3:35 AM 40.3 °F 31.9 °F 24.1 °F 52% 30.21 in 10.0 mi ESE 16.1 mph 25.3 mph N/A   Clear
3:55 AM 40.1 °F 32.4 °F 24.6 °F 54% 30.22 in 10.0 mi ESE 13.8 mph 21.9 mph N/A   Clear
4:15 AM 39.7 °F 31.5 °F 24.8 °F 55% 30.22 in 10.0 mi ESE 15.0 mph - N/A   Clear
4:35 AM 39.4 °F 31.1 °F 24.8 °F 56% 30.23 in 10.0 mi ESE 15.0 mph 21.9 mph N/A   Clear
4:55 AM 39.2 °F 30.8 °F 25.0 °F 57% 30.23 in 10.0 mi ESE 15.0 mph 19.6 mph N/A   Clear
5:15 AM 38.7 °F 30.1 °F 25.5 °F 59% 30.22 in 10.0 mi ESE 15.0 mph 20.7 mph N/A   Clear
5:35 AM 38.5 °F 29.6 °F 24.8 °F 58% 30.22 in 10.0 mi ESE 16.1 mph 21.9 mph N/A   Clear
5:55 AM 38.3 °F 29.0 °F 24.3 °F 57% 30.22 in 10.0 mi ESE 17.3 mph 21.9 mph N/A   Clear
6:15 AM 37.9 °F 28.9 °F 23.7 °F 57% 30.22 in 10.0 mi ESE 16.1 mph - N/A   Clear
6:35 AM 37.6 °F 29.1 °F 23.5 °F 57% 30.21 in 10.0 mi ESE 13.8 mph - N/A   Clear
6:55 AM 37.6 °F 29.1 °F 22.6 °F 55% 30.22 in 10.0 mi ESE 13.8 mph 20.7 mph N/A   Clear
7:15 AM 37.8 °F 29.8 °F 22.5 °F 54% 30.22 in 10.0 mi ESE 12.7 mph - N/A   Clear
7:35 AM 38.3 °F 29.3 °F 22.3 °F 53% 30.22 in 10.0 mi ESE 16.1 mph 19.6 mph N/A   Clear
7:55 AM 39.0 °F 30.3 °F 22.5 °F 52% 30.21 in 10.0 mi SE 16.1 mph 20.7 mph N/A   Clear
8:15 AM 40.1 °F 32.0 °F 23.0 °F 51% 30.21 in 10.0 mi SE 15.0 mph 24.2 mph N/A   Clear
8:35 AM 41.5 °F 32.9 °F 23.5 °F 49% 30.19 in 10.0 mi SE 18.4 mph 24.2 mph N/A   Clear
8:55 AM 43.5 °F 35.0 °F 23.9 °F 46% 30.18 in 10.0 mi SE 20.7 mph 28.8 mph N/A   Clear
9:15 AM 44.2 °F 36.7 °F 25.2 °F 47% 30.18 in 10.0 mi SE 17.3 mph 21.9 mph N/A   Clear
9:35 AM 45.5 °F 39.2 °F 26.1 °F 47% 30.17 in 10.0 mi SE 13.8 mph 26.5 mph N/A   Clear
9:55 AM 46.6 °F - 25.7 °F 44% 30.16 in 10.0 mi SE 18.4 mph 25.3 mph N/A   Clear
10:15 AM 48.9 °F - 26.1 °F 41% 30.16 in 10.0 mi SSE 18.4 mph 24.2 mph N/A   Clear
10:35 AM 50.2 °F - 27.9 °F 42% 30.17 in 10.0 mi SE 13.8 mph - N/A   Clear
10:55 AM 52.5 °F - 28.9 °F 40% 30.18 in 10.0 mi SSE 13.8 mph 18.4 mph N/A   Clear
11:15 AM 53.8 °F - 29.5 °F 39% 30.16 in 10.0 mi SSE 13.8 mph 18.4 mph N/A   Clear
11:35 AM 55.4 °F - 28.4 °F 36% 30.15 in 10.0 mi SSE 12.7 mph 20.7 mph N/A   Clear
11:55 AM 56.5 °F - 30.7 °F 38% 30.13 in 10.0 mi SSE 10.4 mph 18.4 mph N/A   Clear
12:15 PM 58.6 °F - 31.5 °F 36% 30.11 in 10.0 mi SSE 13.8 mph 20.7 mph N/A   Clear
12:35 PM 60.6 °F - 32.4 °F 35% 30.10 in 10.0 mi SSE 17.3 mph 24.2 mph N/A   Scattered Clouds
12:55 PM 60.8 °F - 33.3 °F 36% 30.09 in 10.0 mi SSE 17.3 mph 21.9 mph N/A   Mostly Cloudy
1:15 PM 60.8 °F - 33.3 °F 36% 30.06 in 10.0 mi South 16.1 mph 23.0 mph N/A   Overcast
1:35 PM 63.1 °F - 35.8 °F 36% 30.04 in 10.0 mi SSE 18.4 mph - N/A   Overcast
1:55 PM 64.0 °F - 36.0 °F 35% 30.01 in 10.0 mi SSE 19.6 mph 29.9 mph N/A   Scattered Clouds
2:15 PM 65.8 °F - 37.6 °F 35% 29.99 in 10.0 mi South 18.4 mph 27.6 mph N/A   Clear
2:35 PM 66.4 °F - 39.4 °F 37% 29.98 in 10.0 mi South 18.4 mph 28.8 mph N/A   Clear
2:55 PM 68.9 °F - 39.9 °F 35% 29.95 in 10.0 mi SSE 21.9 mph 31.1 mph N/A   Clear
3:15 PM 68.9 °F - 39.7 °F 35% 29.94 in 10.0 mi SSE 21.9 mph 28.8 mph N/A   Clear
3:35 PM 69.1 °F - 40.1 °F 35% 29.92 in 10.0 mi SSE 17.3 mph 29.9 mph N/A   Clear
3:55 PM 70.3 °F - 42.1 °F 36% 29.90 in 10.0 mi South 24.2 mph 29.9 mph N/A   Clear
4:15 PM 70.3 °F - 43.0 °F 37% 29.89 in 10.0 mi South 23.0 mph 33.4 mph N/A   Clear
4:35 PM 70.9 °F - 43.3 °F 37% 29.87 in 10.0 mi South 25.3 mph 35.7 mph N/A   Clear
4:55 PM 71.4 °F - 43.3 °F 36% 29.87 in 10.0 mi South 21.9 mph 29.9 mph N/A   Clear
5:15 PM 72.3 °F - 45.0 °F 37% 29.86 in 10.0 mi South 16.1 mph 26.5 mph N/A   Clear
5:35 PM 71.4 °F - 44.8 °F 38% 29.86 in 10.0 mi South 26.5 mph 33.4 mph N/A   Clear
5:55 PM 71.6 °F - 45.1 °F 39% 29.87 in 10.0 mi SSW 20.7 mph 28.8 mph N/A   Clear
6:15 PM 70.0 °F - 45.0 °F 41% 29.88 in 10.0 mi SSW 15.0 mph 23.0 mph N/A   Scattered Clouds
6:35 PM 69.3 °F - 45.3 °F 42% 29.89 in 10.0 mi SSW 19.6 mph 27.6 mph N/A   Clear
6:55 PM 68.7 °F - 45.1 °F 43% 29.88 in 10.0 mi SSW 16.1 mph 25.3 mph N/A   Clear
7:15 PM 67.5 °F - 45.7 °F 46% 29.88 in 10.0 mi South 15.0 mph 23.0 mph N/A   Clear
7:35 PM 66.9 °F - 45.9 °F 47% 29.89 in 10.0 mi SSW 15.0 mph 21.9 mph N/A   Clear
7:55 PM 66.4 °F - 45.9 °F 48% 29.88 in 10.0 mi SSW 18.4 mph 23.0 mph N/A   Clear
8:15 PM 65.3 °F - 46.0 °F 50% 29.89 in 10.0 mi South 18.4 mph 21.9 mph N/A   Clear
8:35 PM 65.3 °F - 46.4 °F 50% 29.89 in 10.0 mi South 18.4 mph 25.3 mph N/A   Clear
8:55 PM 64.4 °F - 46.4 °F 52% 29.88 in 10.0 mi South 18.4 mph - N/A   Clear
9:15 PM 63.0 °F - 46.4 °F 55% 29.87 in 10.0 mi South 17.3 mph - N/A   Clear
9:35 PM 63.0 °F - 46.4 °F 55% 29.87 in 10.0 mi South 17.3 mph 21.9 mph N/A   Clear
9:55 PM 63.3 °F - 46.0 °F 53% 29.87 in 10.0 mi South 13.8 mph 25.3 mph N/A   Clear
10:15 PM 62.6 °F - 45.9 °F 54% 29.86 in 10.0 mi South 18.4 mph 24.2 mph N/A   Clear
10:35 PM 62.6 °F - 46.0 °F 55% 29.86 in 10.0 mi South 13.8 mph - N/A   Scattered Clouds
10:55 PM 62.4 °F - 46.2 °F 55% 29.86 in 10.0 mi South 13.8 mph 19.6 mph N/A Thunderstorm Mostly Cloudy
11:15 PM 62.4 °F - 46.6 °F 56% 29.86 in 10.0 mi SSW 11.5 mph - N/A Thunderstorm Thunderstorm
11:35 PM 62.6 °F - 48.0 °F 59% 29.88 in 10.0 mi West 11.5 mph - N/A Rain , Thunderstorm Light Thunderstorms and Rain
11:55 PM 60.3 °F - 49.3 °F 67% 29.89 in 10.0 mi West 5.8 mph - N/A Thunderstorm Unknown